This demonstration page uses our WeatherBlox Daily Observations layout. Learn more.

Left ArrowRight Arrow

Hourly Observations for November 21, 2020

Temp ( °F °C ) Dew Point ( °F °C ) Humidity (%) Winds ( mph kmh ) Pressure ( in mb ) Visibility ( mi km ) Precip ( " mm )
12:15 am 00:15 Cloudy 39 3.8 27 -3 62 62 ENE 3 6 30.54 1034 10 16 N/A
12:35 am 00:35 Cloudy 38 3.5 28 -2.1 67 67 ENE 5 7 30.55 1035 10 16 N/A
12:55 am 00:55 Cloudy 39 3.7 28 -2 67 67 NE 3 6 30.54 1034 10 16 N/A
1:15 am 01:15 Cloudy 38 3.3 28 -2.1 68 68 N N/A 30.55 1035 10 16 N/A
1:35 am 01:35 Cloudy 37 3 28 -2.5 67 67 NNE 3 6 30.55 1034 10 16 N/A
1:55 am 01:55 Partly Cloudy 36 2.1 27 -2.6 71 71 NNE 6 9 30.56 1035 10 16 N/A
2:15 am 02:15 Partly Cloudy 37 2.6 28 -2.2 71 71 NNE 8 13 30.55 1035 10 16 N/A
2:35 am 02:35 Mostly Cloudy 36 2.1 28 -2.1 74 74 NNE 7 11 30.56 1035 10 16 N/A
2:55 am 02:55 Mostly Cloudy 35 1.8 28 -2.1 76 76 NNE 7 11 30.56 1035 10 16 N/A
3:15 am 03:15 Mostly Cloudy 35 1.5 29 -1.9 78 78 NE 7 11 30.56 1035 10 16 N/A
3:35 am 03:35 Cloudy 36 2 31 -0.8 82 82 ENE 7 11 30.56 1035 10 16 N/A
3:55 am 03:55 Cloudy 36 2.3 31 -0.4 83 83 ENE 8 13 30.54 1034 10 16 N/A
4:15 am 04:15 Mostly Cloudy 36 2.1 31 -0.5 83 83 NE 7 11 30.55 1034 10 16 N/A
4:35 am 04:35 Cloudy 36 2 31 -0.3 85 85 E 5 7 30.55 1034 10 16 N/A
4:55 am 04:55 Cloudy 36 2 32 -0.1 86 86 NE 6 9 30.55 1034 10 16 N/A
5:15 am 05:15 Cloudy 35 1.8 32 undefined 88 88 ENE 5 7 30.54 1034 10 16 N/A
5:35 am 05:35 Cloudy 35 1.8 32 undefined 88 88 E 3 6 30.54 1034 10 16 N/A
5:55 am 05:55 Partly Cloudy 36 2 32 undefined 87 87 NE 5 7 30.54 1034 10 16 N/A
6:15 am 06:15 Partly Cloudy 35 1.8 32 undefined 88 88 NE 6 9 30.54 1034 10 16 N/A
6:35 am 06:35 Clear 35 1.8 32 0.1 89 89 NE 7 11 30.53 1034 10 16 N/A
6:55 am 06:55 Clear 35 1.5 32 undefined 90 90 NE 7 11 30.53 1034 10 16 N/A
7:15 am 07:15 Clear 34 1.2 32 undefined 92 92 NE 9 15 30.53 1034 10 16 N/A
7:35 am 07:35 Sunny 34 1.3 32 undefined 91 91 ENE 12 19 30.53 1034 7 11 N/A
7:55 am 07:55 Partly Cloudy 35 1.5 32 undefined 90 90 ENE 9 15 30.53 1034 7 11 N/A
8:15 am 08:15 Mostly Cloudy with Mist and Fog 35 1.5 32 0.2 91 91 E 9 15 30.52 1034 5 8 N/A
8:35 am 08:35 Cloudy 35 1.8 33 0.3 90 90 E 7 11 30.53 1034 7 11 N/A
8:55 am 08:55 Cloudy 36 2.2 33 0.5 89 89 E 7 11 30.53 1034 7 11 N/A
9:15 am 09:15 Cloudy 37 3 33 0.8 86 86 SE 5 7 30.53 1034 10 16 N/A
9:35 am 09:35 Cloudy 39 4 34 1.1 82 82 ESE 8 13 30.51 1033 10 16 N/A
9:55 am 09:55 Cloudy 40 4.4 33 0.6 77 77 ESE 9 15 30.50 1033 10 16 N/A
10:15 am 10:15 Cloudy 41 4.8 34 1 77 77 ESE 10 17 30.50 1033 10 16 N/A
10:35 am 10:35 Cloudy 41 5.2 33 0.8 74 74 ESE 10 17 30.49 1032 10 16 N/A
10:55 am 10:55 Cloudy 42 5.3 33 0.6 72 72 ESE 10 17 30.48 1032 10 16 N/A
11:15 am 11:15 Cloudy 42 5.6 33 0.5 70 70 SE 10 17 30.47 1032 10 16 N/A
11:35 am 11:35 Cloudy 43 6.2 32 undefined 65 65 ESE 8 13 30.45 1031 10 16 N/A
11:55 am 11:55 Cloudy 43 6.3 32 undefined 64 64 SE 7 11 30.44 1031 10 16 N/A
12:15 pm 12:15 Cloudy 43 6.2 32 undefined 65 65 SE 7 11 30.44 1031 10 16 N/A
12:35 pm 12:35 Cloudy 44 6.5 32 undefined 64 64 SE 6 9 30.42 1030 10 16 N/A
12:55 pm 12:55 Cloudy 45 7 31 -0.8 58 58 SE 7 11 30.41 1030 10 16 N/A
1:15 pm 13:15 Cloudy 46 7.6 31 -0.8 56 56 SSE 12 19 30.39 1029 10 16 N/A
1:35 pm 13:35 Cloudy 45 7.4 32 -0.1 59 59 SE 9 15 30.40 1029 10 16 N/A
1:55 pm 13:55 Cloudy 45 7.1 32 0.1 61 61 SSE 8 13 30.39 1029 10 16 N/A
2:15 pm 14:15 Cloudy 45 7.3 33 0.4 62 62 SSE 12 19 30.38 1029 10 16 N/A
2:35 pm 14:35 Cloudy 45 7.2 33 0.4 62 62 SE 10 17 30.37 1028 10 16 N/A
2:55 pm 14:55 Cloudy 45 7.2 34 0.9 65 65 SE 10 17 30.37 1028 10 16 N/A
3:15 pm 15:15 Cloudy 45 7 34 1.1 66 66 SE 12 19 30.35 1028 10 16 N/A
3:35 pm 15:35 Cloudy 45 7.3 34 1.3 66 66 ESE 12 19 30.34 1027 10 16 N/A
3:55 pm 15:55 Partly Cloudy 46 7.6 35 1.5 66 66 SE 13 20 30.32 1027 10 16 N/A
4:15 pm 16:15 Sunny 45 7.4 35 1.5 66 66 SE 9 15 30.33 1027 10 16 N/A
4:35 pm 16:35 Sunny 45 7 35 1.5 68 68 SE 8 13 30.33 1027 10 16 N/A
4:55 pm 16:55 Sunny 43 6 34 1.2 72 72 SE 6 9 30.35 1028 10 16 N/A
5:15 pm 17:15 Sunny 39 4.1 32 0.2 76 76 SE 5 7 30.37 1028 10 16 N/A
5:35 pm 17:35 Clear 39 3.8 32 0.1 77 77 SSE 5 7 30.37 1028 10 16 N/A
5:55 pm 17:55 Clear 38 3.5 32 undefined 78 78 SSE 3 6 30.37 1029 10 16 N/A
6:15 pm 18:15 Clear 37 2.6 32 undefined 83 83 N N/A 30.38 1029 10 16 N/A
6:35 pm 18:35 Clear 33 0.4 29 -1.7 86 86 N N/A 30.41 1030 10 16 N/A
6:55 pm 18:55 Clear 31 -0.6 27 -2.8 85 85 ESE 3 6 30.41 1030 10 16 N/A
7:15 pm 19:15 Clear 31 -0.5 29 -1.7 92 92 N N/A 30.43 1030 10 16 N/A
7:35 pm 19:35 Mostly Cloudy 34 1.1 32 0.1 93 93 N N/A 30.41 1030 10 16 N/A
7:55 pm 19:55 Cloudy 33 0.6 30 -0.9 90 90 N N/A 30.43 1030 10 16 N/A
8:15 pm 20:15 Cloudy 34 1.3 32 -0.1 91 91 N N/A 30.41 1030 10 16 N/A
8:35 pm 20:35 Cloudy 37 2.5 34 0.9 89 89 SSE 5 7 30.40 1030 10 16 N/A
8:55 pm 20:55 Partly Cloudy 34 1.3 32 undefined 91 91 SSE 10 17 30.40 1030 10 16 N/A
9:15 pm 21:15 Clear 34 1.2 32 0.2 93 93 SSE 6 9 30.39 1029 7 11 N/A
9:35 pm 21:35 Clear 35 1.5 33 0.6 94 94 N N/A 30.40 1030 7 11 N/A
9:55 pm 21:55 Clear 34 1.2 33 0.5 95 95 SSW 3 6 30.40 1030 7 11 N/A
10:15 pm 22:15 Clear with Mist and Fog 34 1 33 0.3 95 95 S 3 6 30.41 1030 5 8 N/A
10:35 pm 22:35 Clear 33 0.6 32 undefined 96 96 N N/A 30.42 1030 7 11 N/A
10:55 pm 22:55 Partly Cloudy with Mist and Fog 31 -0.7 29 -1.4 95 95 N N/A 30.44 1031 2 3 N/A
11:15 pm 23:15 Mostly Cloudy 31 -0.7 30 -1.3 96 96 N N/A 30.44 1031 7 11 N/A
11:35 pm 23:35 Partly Cloudy 32 -0.1 31 -0.6 96 96 S 3 6 30.44 1031 7 11 N/A
11:55 pm 23:55 Clear with Mist and Fog 32 undefined 31 -0.5 96 96 SSW 5 7 30.43 1030 3 5 N/A

Powered by AerisWeather